Location: Wayah Bald
(35.1806°N, 83.5603°W)
Time: 02:11:10
(UTC-04:00)

Meteor 1-27 Rocket - Visible Passes

Search period start: 01 July 2016 00:00
Search period end: 11 July 2016 00:00
Orbit: 831 x 909 km, 81.3° (Epoch: 30 June)

Date Brightness Start Highest point End Pass type
(mag) Time Alt. Az. Time Alt. Az. Time Alt. Az.
01 Jul 4.3 01:21:08 10° N 01:26:02 54° NE 01:26:02 54° NE visible
01 Jul 5.8 03:06:29 10° NW 03:08:26 14° WNW 03:08:26 14° WNW visible
02 Jul 4.2 01:14:57 10° N 01:19:48 55° NE 01:19:48 55° NE visible
02 Jul 5.9 03:00:27 10° NW 03:02:13 13° WNW 03:02:13 13° WNW visible
03 Jul 4.2 01:08:46 10° N 01:13:36 56° NE 01:13:36 56° NE visible
03 Jul 5.9 02:54:26 10° NW 02:56:01 13° WNW 02:56:01 13° WNW visible
04 Jul 4.2 01:02:36 10° N 01:07:24 57° NNE 01:07:24 57° NNE visible
04 Jul 6.0 02:48:27 10° WNW 02:49:49 12° WNW 02:49:49 12° WNW visible
05 Jul 4.1 00:56:25 10° N 01:01:14 58° NNE 01:01:14 58° NNE visible
05 Jul 6.0 02:42:28 10° WNW 02:43:39 12° WNW 02:43:39 12° WNW visible
06 Jul 4.1 00:50:15 10° N 00:55:04 59° NNE 00:55:04 59° NNE visible
06 Jul 6.1 02:36:31 10° WNW 02:37:29 11° WNW 02:37:29 11° WNW visible
07 Jul 4.1 00:44:04 10° N 00:48:55 61° NNE 00:48:55 61° NNE visible
07 Jul 6.1 02:30:37 10° WNW 02:31:20 11° WNW 02:31:20 11° WNW visible
08 Jul 4.0 00:37:53 10° N 00:42:46 63° NNE 00:42:46 63° NNE visible
08 Jul 6.1 02:24:46 10° WNW 02:25:11 10° WNW 02:25:11 10° WNW visible
09 Jul 4.0 00:31:43 10° N 00:36:39 65° NNE 00:36:39 65° NNE visible
10 Jul 3.9 00:25:33 10° N 00:30:32 67° NNE 00:30:32 67° NNE visible
